DW6440 Weather Reports


Display with metric or nautical units.
time (UTC)temp
F
wind
direction
speed
MPH
gust
MPH
rain 1hr
in
rain 24hr
in
rain mn
in
humidity
%
barometer
mb
20260506031823 67 203 3.0 10.0 0.00 0.00 0.00 62 1009.8
20260506031323 68 185 4.0 10.0 0.00 0.00 0.00 62 1009.8
20260506031312 68 184 4.0 8.0 0.00 0.00 0.00 62 1009.7
20260506030323 68 158 4.0 10.0 0.00 0.00 0.00 61 1009.8
20260506025824 68 154 4.0 12.0 0.00 0.00 0.00 61 1009.8
20260506025321 68 146 4.0 12.0 0.00 0.00 0.00 61 1009.8
20260506024821 68 215 3.0 12.0 0.00 0.00 0.00 61 1009.8
20260506024544 68 148 3.0 10.0 0.00 0.00 0.00 61 1009.8
20260506024037 68 207 4.0 12.0 0.00 0.00 0.00 60 1009.8
20260506023310 69 177 4.0 12.0 0.00 0.00 0.00 60 1009.7
20260506022810 69 242 4.0 9.0 0.00 0.00 0.00 59 1009.8
20260506022301 69 177 4.0 10.0 0.00 0.00 0.00 59 1009.9
20260506021754 69 198 4.0 12.0 0.00 0.00 0.00 59 1009.9
20260506021251 69 229 4.0 12.0 0.00 0.00 0.00 59 1009.9
20260506021026 69 163 4.0 10.0 0.00 0.00 0.00 58 1009.9
20260506020306 69 157 5.0 14.0 0.00 0.00 0.00 57 1009.8
20260506015751 70 259 5.0 14.0 0.00 0.00 0.00 57 1009.8
20260506015252 69 210 3.0 9.0 0.00 0.00 0.00 57 1009.8
20260506014754 69 207 3.0 9.0 0.00 0.00 0.00 57 1009.6
20260506014250 69 158 4.0 9.0 0.00 0.00 0.00 57 1009.5
20260506013751 70 159 4.0 9.0 0.00 0.00 0.00 56 1009.5
20260506013251 70 209 4.0 9.0 0.00 0.00 0.00 56 1009.5
20260506012749 70 216 3.0 9.0 0.00 0.00 0.00 55 1009.6
20260506012510 70 216 4.0 9.0 0.00 0.00 0.00 55 1009.4
20260506011745 71 120 4.0 8.0 0.00 0.00 0.00 54 1009.3
20260506011248 71 179 3.0 8.0 0.00 0.00 0.00 54 1009.3
20260506010746 71 157 3.0 10.0 0.00 0.00 0.00 53 1009.3
20260506010249 72 154 5.0 12.0 0.00 0.00 0.00 52 1009.2
20260506010232 72 196 6.0 12.0 0.00 0.00 0.00 52 1009.1
20260506005248 72 189 6.0 16.0 0.00 0.00 0.00 51 1009.0
20260506004745 72 142 5.0 16.0 0.00 0.00 0.00 51 1009.0
20260506004243 72 134 5.0 12.0 0.00 0.00 0.00 50 1009.0
20260506003731 72 196 5.0 12.0 0.00 0.00 0.00 50 1008.9
20260506003454 73 194 5.0 12.0 0.00 0.00 0.00 49 1008.9
20260506002719 73 151 5.0 9.0 0.00 0.00 0.00 49 1008.9
20260506002213 73 153 5.0 10.0 0.00 0.00 0.00 49 1008.9
20260506001927 73 151 4.0 10.0 0.00 0.00 0.00 49 1008.8
20260506001202 73 139 4.0 9.0 0.00 0.00 0.00 49 1008.7
20260506000657 74 149 3.0 8.0 0.00 0.00 0.00 48 1008.7
20260506000155 74 153 3.0 7.0 0.00 0.00 0.00 48 1008.7
20260505235646 74 143 4.0 12.0 0.00 0.00 0.00 47 1008.6
20260505235140 74 178 5.0 12.0 0.00 0.00 0.00 47 1008.6
20260505234645 74 170 4.0 9.0 0.00 0.00 0.00 47 1008.5
20260505234127 75 119 3.0 11.0 0.00 0.00 0.00 46 1008.5
20260505233623 75 172 4.0 11.0 0.00 0.00 0.00 46 1008.4
20260505233121 75 188 5.0 11.0 0.00 0.00 0.00 46 1008.3
20260505232619 75 133 4.0 11.0 0.00 0.00 0.00 46 1008.3
20260505232120 75 146 4.0 10.0 0.00 0.00 0.00 46 1008.4
20260505231619 76 159 4.0 9.0 0.00 0.00 0.00 45 1008.4
20260505231122 76 132 4.0 11.0 0.00 0.00 0.00 45 1008.4
20260505230620 76 132 5.0 11.0 0.00 0.00 0.00 45 1008.4
20260505230120 77 173 4.0 10.0 0.00 0.00 0.00 44 1008.4
20260505225844 77 127 5.0 11.0 0.00 0.00 0.00 44 1008.4
20260505225121 77 123 5.0 11.0 0.00 0.00 0.00 43 1008.4
20260505224843 78 150 5.0 15.0 0.00 0.00 0.00 43 1008.4
20260505224119 78 209 5.0 15.0 0.00 0.00 0.00 42 1008.4
20260505223619 78 194 4.0 12.0 0.00 0.00 0.00 43 1008.4
20260505223115 79 150 5.0 10.0 0.00 0.00 0.00 44 1008.3
20260505222838 79 167 5.0 11.0 0.00 0.00 0.00 44 1008.4
20260505222113 79 191 5.0 15.0 0.00 0.00 0.00 42 1008.4
20260505221611 79 165 7.0 18.0 0.00 0.00 0.00 42 1008.5
20260505221338 80 156 6.0 18.0 0.00 0.00 0.00 41 1008.4
20260505220605 80 123 5.0 13.0 0.00 0.00 0.00 40 1008.4
20260505215553 80 189 5.0 14.0 0.00 0.00 0.00 41 1008.4
20260505215046 79 162 6.0 14.0 0.00 0.00 0.00 41 1008.4
20260505214543 79 198 6.0 18.0 0.00 0.00 0.00 40 1008.4
20260505214034 80 259 8.0 18.0 0.00 0.00 0.00 40 1008.4
20260505213528 81 246 8.0 18.0 0.00 0.00 0.00 39 1008.4
20260505213022 81 246 6.0 18.0 0.00 0.00 0.00 39 1008.3
20260505212518 81 212 7.0 21.0 0.00 0.00 0.00 40 1008.1
20260505212020 80 153 8.0 21.0 0.00 0.00 0.00 39 1008.1
20260505211517 81 215 7.0 17.0 0.00 0.00 0.00 38 1008.2
20260505211248 81 212 7.0 19.0 0.00 0.00 0.00 37 1008.2
20260505210518 81 227 7.0 19.0 0.00 0.00 0.00 37 1008.1
20260505210016 81 140 8.0 18.0 0.00 0.00 0.00 38 1008.1
20260505205515 81 124 9.0 23.0 0.00 0.00 0.00 37 1008.1
20260505205016 81 217 8.0 23.0 0.00 0.00 0.00 36 1008.2
20260505204515 81 194 8.0 19.0 0.00 0.00 0.00 36 1008.2
20260505204233 81 167 8.0 24.0 0.00 0.00 0.00 36 1008.2
20260505203515 82 227 7.0 24.0 0.00 0.00 0.00 36 1008.3
20260505203249 81 211 8.0 18.0 0.00 0.00 0.00 39 1008.2
20260505202515 81 218 8.0 18.0 0.00 0.00 0.00 36 1008.2
20260505202014 82 234 7.0 16.0 0.00 0.00 0.00 36 1008.3
20260505201516 82 223 8.0 24.0 0.00 0.00 0.00 38 1008.3
20260505201013 81 239 9.0 24.0 0.00 0.00 0.00 37 1008.3
20260505200514 82 206 8.0 19.0 0.00 0.00 0.00 36 1008.4
20260505200009 82 160 9.0 23.0 0.00 0.00 0.00 38 1008.4
20260505195510 81 228 8.0 23.0 0.00 0.00 0.00 37 1008.5
20260505195009 82 166 7.0 21.0 0.00 0.00 0.00 39 1008.5
20260505194510 81 236 7.0 21.0 0.00 0.00 0.00 39 1008.4
20260505194008 81 202 8.0 21.0 0.00 0.00 0.00 41 1008.5
20260505193510 82 203 9.0 21.0 0.00 0.00 0.00 42 1008.4
20260505193011 81 216 8.0 20.0 0.00 0.00 0.00 44 1008.6
20260505192509 82 221 8.0 18.0 0.00 0.00 0.00 39 1008.6
20260505192018 82 139 8.0 20.0 0.00 0.00 0.00 40 1008.7
20260505191738 81 263 6.0 20.0 0.00 0.00 0.00 40 1008.8
20260505191450 82 223 6.0 15.0 0.00 0.00 0.00 44 1008.8
20260505190733 82 209 7.0 23.0 0.00 0.00 0.00 41 1008.9
20260505190010 81 157 7.0 23.0 0.00 0.00 0.00 40 1008.9
20260505190000 81 244 7.0 17.0 0.00 0.00 0.00 40 1009.0
20260505185006 81 155 8.0 17.0 0.00 0.00 0.00 40 1009.0
20260505184506 82 180 7.0 18.0 0.00 0.00 0.00 39 1009.0
20260505184008 81 182 6.0 18.0 0.00 0.00 0.00 39 1009.1
20260505183508 82 159 6.0 15.0 0.00 0.00 0.00 40 1009.2
20260505183008 81 237 6.0 16.0 0.00 0.00 0.00 41 1009.2
20260505182508 81 205 7.0 16.0 0.00 0.00 0.00 39 1009.2
20260505182005 82 254 6.0 15.0 0.00 0.00 0.00 40 1009.3
20260505181509 81 211 6.0 15.0 0.00 0.00 0.00 42 1009.3
20260505181008 80 204 7.0 15.0 0.00 0.00 0.00 42 1009.4
20260505180506 81 214 7.0 15.0 0.00 0.00 0.00 44 1009.5
20260505180005 81 190 7.0 14.0 0.00 0.00 0.00 42 1009.5
20260505175509 80 125 8.0 23.0 0.00 0.00 0.00 43 1009.5
20260505175004 81 291 8.0 23.0 0.00 0.00 0.00 43 1009.6
20260505174722 81 192 7.0 15.0 0.00 0.00 0.00 43 1009.5
20260505174232 81 151 7.0 18.0 0.00 0.00 0.00 42 1009.6
20260505173504 80 157 7.0 18.0 0.00 0.00 0.00 44 1009.7
20260505173003 80 196 7.0 16.0 0.00 0.00 0.00 46 1009.6
20260505172503 80 167 7.0 16.0 0.00 0.00 0.00 43 1009.7
20260505172005 80 151 7.0 15.0 0.00 0.00 0.00 50 1009.7
20260505171501 80 164 6.0 16.0 0.00 0.00 0.00 46 1009.9
20260505171002 79 140 6.0 16.0 0.00 0.00 0.00 50 1010.1
20260505170500 80 231 6.0 14.0 0.00 0.00 0.00 47 1010.0
20260505170005 79 172 5.0 15.0 0.00 0.00 0.00 49 1010.1
20260505165457 80 183 5.0 15.0 0.00 0.00 0.00 48 1010.1
20260505164958 80 178 5.0 14.0 0.00 0.00 0.00 51 1010.2
20260505164456 79 131 6.0 12.0 0.00 0.00 0.00 49 1010.2
20260505163957 79 184 6.0 13.0 0.00 0.00 0.00 47 1010.3
20260505163457 80 136 6.0 15.0 0.00 0.00 0.00 48 1010.3
20260505162958 80 134 6.0 15.0 0.00 0.00 0.00 47 1010.3
20260505162714 80 132 6.0 15.0 0.00 0.00 0.00 46 1010.3
20260505162215 80 213 5.0 13.0 0.00 0.00 0.00 46 1010.2
20260505161723 80 206 5.0 12.0 0.00 0.00 0.00 45 1010.2
20260505160956 79 198 5.0 11.0 0.00 0.00 0.00 44 1010.2
20260505160516 79 207 6.0 16.0 0.00 0.00 0.00 45 1010.3
20260505152953 78 280 5.0 13.0 0.00 0.00 0.00 47 1010.4
20260505152447 78 247 5.0 13.0 0.00 0.00 0.00 47 1010.5
20260505151949 77 181 6.0 14.0 0.00 0.00 0.00 47 1010.5
20260505151449 77 245 6.0 14.0 0.00 0.00 0.00 46 1010.8
20260505150947 77 227 5.0 12.0 0.00 0.00 0.00 47 1010.7
20260505150445 76 215 5.0 12.0 0.00 0.00 0.00 51 1010.6
20260505140444 73 272 4.0 11.0 0.00 0.00 0.00 54 1010.8
20260505124940 66 242 4.0 11.0 0.00 0.00 0.00 62 1011.6
20260505124440 66 286 5.0 12.0 0.00 0.00 0.00 62 1011.6
20260505123933 65 205 5.0 12.0 0.00 0.00 0.00 62 1011.6
20260505123428 65 202 4.0 10.0 0.00 0.00 0.00 63 1011.5
20260505122922 64 242 3.0 10.0 0.00 0.00 0.00 64 1011.4
20260505122416 64 201 3.0 6.0 0.00 0.00 0.00 65 1011.3
20260505121910 63 216 3.0 8.0 0.00 0.00 0.00 66 1011.4
20260505121405 63 208 3.0 8.0 0.00 0.00 0.00 66 1011.4
20260505120858 62 193 4.0 10.0 0.00 0.00 0.00 67 1011.4
20260505120359 62 190 4.0 10.0 0.00 0.00 0.00 68 1011.3
20260505115843 61 188 4.0 8.0 0.00 0.00 0.00 68 1011.3
20260505115339 61 194 4.0 10.0 0.00 0.00 0.00 69 1011.3
20260505114831 61 205 3.0 10.0 0.00 0.00 0.00 69 1011.3
20260505114326 60 199 2.0 7.0 0.00 0.00 0.00 69 1011.2
20260505113819 61 139 2.0 6.0 0.00 0.00 0.00 69 1011.2
20260505113313 61 281 2.0 6.0 0.00 0.00 0.00 69 1011.1
20260505113034 61 223 2.0 6.0 0.00 0.00 0.00 69 1011.0
20260505112529 60 173 2.0 6.0 0.00 0.00 0.00 69 1011.0
20260505111755 60 187 3.0 7.0 0.00 0.00 0.00 70 1010.9
20260505111250 60 191 2.0 7.0 0.00 0.00 0.00 71 1010.9
20260505110742 60 155 2.0 5.0 0.00 0.00 0.00 71 1010.9
20260505110239 59 154 1.0 5.0 0.00 0.00 0.00 71 1010.7
20260505102148 58 216 1.0 6.0 0.00 0.00 0.00 74 1010.2
20260505101642 58 215 2.0 5.0 0.00 0.00 0.00 74 1010.2
20260505101136 58 205 2.0 7.0 0.00 0.00 0.00 74 1010.2
20260505100630 58 203 2.0 7.0 0.00 0.00 0.00 75 1010.2
20260505100355 58 191 2.0 9.0 0.00 0.00 0.00 75 1010.2
20260505095840 57 214 1.0 9.0 0.00 0.00 0.00 75 1010.2
20260505095112 57 223 1.0 4.0 0.00 0.00 0.00 75 1010.1
20260505094606 58 223 2.0 6.0 0.00 0.00 0.00 75 1010.2
20260505094100 58 223 1.0 6.0 0.00 0.00 0.00 76 1010.1
20260505093556 58 219 1.0 6.0 0.00 0.00 0.00 75 1010.1
20260505093048 58 271 1.0 4.0 0.00 0.00 0.00 75 1010.1
20260505092548 58 188 2.0 5.0 0.00 0.00 0.00 74 1010.0
20260505092046 58 187 1.0 5.0 0.00 0.00 0.00 75 1010.0
20260505091547 58 232 1.0 3.0 0.00 0.00 0.00 76 1010.0
20260505091047 58 242 1.0 4.0 0.00 0.00 0.00 76 1010.0
20260505090547 58 202 2.0 6.0 0.00 0.00 0.00 75 1010.0
20260505090058 59 53 2.0 6.0 0.00 0.00 0.00 74 1009.9
20260505085550 59 121 2.0 6.0 0.00 0.00 0.00 74 1010.0
20260505085524 59 212 3.0 6.0 0.00 0.00 0.00 74 1009.9
20260505084800 59 221 3.0 7.0 0.00 0.00 0.00 75 1009.9
20260505084042 59 231 2.0 7.0 0.00 0.00 0.00 75 1010.0
20260505083540 59 167 2.0 5.0 0.00 0.00 0.00 75 1009.9
20260505083040 59 150 2.0 9.0 0.00 0.00 0.00 75 1010.0
20260505082541 59 217 1.0 9.0 0.00 0.00 0.00 75 1009.9
20260505082042 59 183 1.0 4.0 0.00 0.00 0.00 75 1009.9
20260505081538 59 184 1.0 6.0 0.00 0.00 0.00 75 1009.9
20260505081038 59 147 1.0 6.0 0.00 0.00 0.00 75 1010.0
20260505080536 59 186 1.0 3.0 0.00 0.00 0.00 75 1010.0
20260505080034 59 188 2.0 4.0 0.00 0.00 0.00 76 1009.9
20260505075534 59 187 1.0 5.0 0.00 0.00 0.00 76 1009.9
20260505075029 59 183 1.0 5.0 0.00 0.00 0.00 77 1009.9
20260505074529 58 189 2.0 5.0 0.00 0.00 0.00 79 1009.8
20260505074030 58 149 1.0 5.0 0.00 0.00 0.00 81 1009.8
20260505073533 58 131 0.0 3.0 0.00 0.00 0.00 82 1009.8
20260505073032 58 131 1.0 3.0 0.00 0.00 0.00 82 1009.7
20260505072528 58 135 1.0 3.0 0.00 0.00 0.00 81 1009.7
20260505072029 58 140 1.0 3.0 0.00 0.00 0.00 81 1009.8
20260505071529 58 235 1.0 3.0 0.00 0.00 0.00 81 1009.8
20260505071254 58 229 1.0 5.0 0.00 0.00 0.00 81 1009.8
20260505070526 58 240 1.0 5.0 0.00 0.00 0.00 80 1010.0
20260505070028 58 135 1.0 3.0 0.00 0.00 0.00 80 1010.1
20260505065525 59 135 1.0 3.0 0.00 0.00 0.00 77 1009.9
20260505065026 59 135 1.0 4.0 0.00 0.00 0.00 76 1010.0
20260505064525 59 136 1.0 4.0 0.00 0.00 0.00 74 1010.0
20260505064024 60 140 1.0 4.0 0.00 0.00 0.00 72 1010.1
20260505063523 60 139 1.0 4.0 0.00 0.00 0.00 70 1010.1
20260505063028 60 138 1.0 4.0 0.00 0.00 0.00 70 1010.1
20260505062530 59 140 1.0 5.0 0.00 0.00 0.00 71 1010.1
20260505062028 59 227 1.0 5.0 0.00 0.00 0.00 71 1010.0
20260505061530 59 74 0.0 0.0 0.00 0.00 0.00 71 1010.0
20260505061024 59 74 0.0 0.0 0.00 0.00 0.00 71 1010.1
20260505060741 59 73 0.0 1.0 0.00 0.00 0.00 71 1010.1
20260505060023 58 73 0.0 1.0 0.00 0.00 0.00 71 1010.2
20260505055524 58 73 0.0 2.0 0.00 0.00 0.00 70 1010.2
20260505055022 58 73 0.0 3.0 0.00 0.00 0.00 70 1010.1
20260505054956 58 73 0.0 3.0 0.00 0.00 0.00 70 1010.1
20260505054020 58 130 0.0 1.0 0.00 0.00 0.00 69 1010.1
20260505053742 58 130 0.0 4.0 0.00 0.00 0.00 70 1010.1
20260505053032 58 130 0.0 4.0 0.00 0.00 0.00 70 1010.1
20260505052525 57 130 0.0 2.0 0.00 0.00 0.00 70 1010.1
20260505052255 57 130 0.0 2.0 0.00 0.00 0.00 69 1010.2
20260505051518 57 130 0.0 2.0 0.00 0.00 0.00 69 1010.2
20260505051021 57 130 0.0 2.0 0.00 0.00 0.00 68 1010.2
20260505050530 58 130 1.0 3.0 0.00 0.00 0.00 67 1010.2
20260505041514 60 132 2.0 9.0 0.00 0.00 0.00 61 1010.0
20260505041015 60 141 1.0 9.0 0.00 0.00 0.00 61 1009.9
20260505040511 60 132 2.0 5.0 0.00 0.00 0.00 60 1009.9
20260505040013 61 132 2.0 5.0 0.00 0.00 0.00 59 1009.9
20260505035508 61 149 2.0 6.0 0.00 0.00 0.00 59 1009.8
20260505035005 61 157 3.0 8.0 0.00 0.00 0.00 59 1009.8
20260505034459 61 145 3.0 8.0 0.00 0.00 0.00 58 1009.6
20260505033952 62 167 2.0 7.0 0.00 0.00 0.00 58 1009.6
20260505033447 62 140 2.0 4.0 0.00 0.00 0.00 58 1009.6
20260505032939 62 140 2.0 9.0 0.00 0.00 0.00 57 1009.7
20260505032438 62 140 4.0 9.0 0.00 0.00 0.00 56 1009.8